Overview Statistics Trail Chart Weather Telemetry Raw packets
 

This is the latest recevied weather packets stored in our database for station/object OK1FET-4. If no packets are shown the sender has not sent any weather packets the latest 10 day(s).

<< 47 48 49 50 51 52 53 >>
Time Temp. Humidity Pressure Rain* Wind** Luminosity Snow
1788342870 24.44° C 47% 1022.3 hPa - - - -
1788342568 24.44° C 47% 1022.2 hPa - - - -
1788342267 24.44° C 49% 1022.3 hPa - - - -
1788341965 24.44° C 51% 1022.3 hPa - - - -
1788341664 24.44° C 51% 1022.4 hPa - - - -
1788341362 24.44° C 51% 1022.5 hPa - - - -
1788341060 24.44° C 50% 1022.5 hPa - - - -
1788340759 25.56° C 55% 1022.5 hPa - - - -
1788340457 25° C 50% 1022.4 hPa - - - -
1788340155 25° C 57% 1022.4 hPa - - - -
1788339853 25° C 61% 1022.4 hPa - - - -
1788339552 24.44° C 61% 1022.4 hPa - - - -
1788339250 24.44° C 64% 1022.4 hPa - - - -
1788338948 24.44° C 64% 1022.5 hPa - - - -
1788338647 22.78° C 64% 1022.6 hPa - - - -
1788338345 22.22° C 63% 1022.5 hPa - - - -
1788338044 22.22° C 61% 1022.5 hPa - - - -
1788337742 22.22° C 67% 1022.6 hPa - - - -
1788337441 21.67° C 63% 1022.5 hPa - - - -
1788337140 21.11° C 65% 1022.5 hPa - - - -
1788336838 20.56° C 65% 1022.5 hPa - - - -
1788336537 20° C 65% 1022.6 hPa - - - -
1788336236 19.44° C 66% 1022.6 hPa - - - -
1788335935 18.89° C 69% 1022.6 hPa - - - -
1788335634 18.89° C 65% 1022.5 hPa - - - -

* Rain since midnight (hover to see other rain measurements)
** Current wind speed in m/s (hover to see current wind gust speed)